This is the latest recevied weather packets stored in our database for station/object F8BPU-10. If no packets are shown the sender has not sent any weather packets the latest 10 day(s).
| Time | Temp. | Humidity | Pressure | Rain* | Wind** | Luminosity | Snow |
|---|---|---|---|---|---|---|---|
| 1777736995 | 26.67° C | 34% | 1014.2 hPa | - | - | - | - |
| 1777736095 | 27.22° C | 33% | 1014.6 hPa | - | - | - | - |
| 1777735195 | 27.22° C | 33% | 1014.8 hPa | - | - | - | - |
| 1777734295 | 27.78° C | 32% | 1015.1 hPa | - | - | - | - |
| 1777733394 | 28.89° C | 30% | 1015.3 hPa | - | - | - | - |
| 1777732494 | 28.89° C | 30% | 1015.4 hPa | - | - | - | - |
| 1777731594 | 28.89° C | 30% | 1015.8 hPa | - | - | - | - |
| 1777730694 | 28.33° C | 30% | 1016 hPa | - | - | - | - |
| 1777729794 | 28.33° C | 30% | 1016.3 hPa | - | - | - | - |
| 1777728894 | 28.89° C | 29% | 1016.6 hPa | - | - | - | - |
| 1777727994 | 28.89° C | 29% | 1017 hPa | - | - | - | - |
| 1777727094 | 28.89° C | 28% | 1017 hPa | - | - | - | - |
| 1777726194 | 28.89° C | 28% | 1017.2 hPa | - | - | - | - |
| 1777725294 | 28.89° C | 28% | 1017.3 hPa | - | - | - | - |
| 1777724394 | 28.33° C | 28% | 1017.6 hPa | - | - | - | - |
| 1777723494 | 28.33° C | 28% | 1017.8 hPa | - | - | - | - |
| 1777722594 | 28.33° C | 28% | 1018 hPa | - | - | - | - |
| 1777721693 | 28.33° C | 28% | 1018.2 hPa | - | - | - | - |
| 1777720793 | 28.33° C | 28% | 1018.5 hPa | - | - | - | - |
| 1777719893 | 28.33° C | 28% | 1018.6 hPa | - | - | - | - |
| 1777718993 | 28.33° C | 28% | 1018.6 hPa | - | - | - | - |
| 1777718093 | 28.33° C | 28% | 1018.7 hPa | - | - | - | - |
| 1777717193 | 28.33° C | 28% | 1018.9 hPa | - | - | - | - |
| 1777716293 | 27.78° C | 28% | 1019.2 hPa | - | - | - | - |
| 1777715393 | 27.78° C | 28% | 1019.4 hPa | - | - | - | - |
* Rain since midnight (hover to see other rain measurements)
** Current wind speed in m/s (hover to see current wind gust speed)